contact: severine.martini@mio.osupytheas.fr, dominique.lefevre@mio.osupytheas.fr
Project:EMSO Ligure-ouest http://www.emso-fr.org/EMSO-France
Sensor Optode, line 4330 Serial 272 
DOI : "https://doi.org/10.17882/97948" 
Title:EMSO Ligure Ouest : Data BathyDock capteur Optode - deploiement "2023-04-28"
Datetime,Profondeur,Latitude,Longitude,optode_type,serial,O2_concentration,O2_saturation,Temperature,Calibrated_Phase,Temp_Compensated_Phase,phase_blue_light,phase_red_light,Amplitude_blue_light,Amplitude_red_light,thermistor_bridge
time,m,degree_north,degree_east,1,1,umol.l-1,%,degree_C,degree,degree,degree,degree,mV,mV,mV
2023-12-07T00:00:08,2420,42.8014,5.9826,4330,272,186.021,57.015,13.343,36.052,36.632,41.220,4.588,295.7,544.2,290.1
2023-12-07T00:03:08,2420,42.8014,5.9826,4330,272,186.016,57.011,13.341,36.053,36.633,41.216,4.583,295.7,544.2,290.2
2023-12-07T00:06:08,2420,42.8014,5.9826,4330,272,186.125,57.032,13.332,36.051,36.631,41.217,4.586,295.7,544.2,290.5
2023-12-07T00:09:08,2420,42.8014,5.9826,4330,272,186.134,57.037,13.333,36.050,36.630,41.216,4.586,295.7,544.2,290.5
2023-12-07T00:12:08,2420,42.8014,5.9826,4330,272,186.006,57.001,13.336,36.056,36.636,41.224,4.588,295.8,544.2,290.4
2023-12-07T00:15:08,2420,42.8014,5.9826,4330,272,186.168,57.050,13.336,36.046,36.626,41.212,4.586,295.8,544.3,290.4
2023-12-07T00:21:08,2420,42.8014,5.9826,4330,272,186.157,57.049,13.337,36.046,36.626,41.212,4.586,295.7,544.1,290.4
2023-12-07T00:24:08,2420,42.8014,5.9826,4330,272,186.019,57.014,13.343,36.052,36.632,41.214,4.582,295.7,544.2,290.1
2023-12-07T00:27:08,2420,42.8014,5.9826,4330,272,186.016,57.011,13.341,36.054,36.634,41.216,4.582,295.7,544.3,290.2
2023-12-07T00:30:08,2420,42.8014,5.9826,4330,272,186.230,57.079,13.343,36.039,36.619,41.203,4.583,295.8,542.0,290.2
2023-12-07T00:33:08,2420,42.8014,5.9826,4330,272,186.229,57.078,13.343,36.039,36.619,41.205,4.586,295.7,544.2,290.2
2023-12-07T00:36:08,2420,42.8014,5.9826,4330,272,186.143,57.052,13.343,36.045,36.625,41.213,4.588,295.7,544.2,290.2
2023-12-07T00:42:08,2420,42.8014,5.9826,4330,272,186.160,57.052,13.339,36.046,36.626,41.211,4.585,295.8,544.3,290.3
2023-12-07T00:45:08,2420,42.8014,5.9826,4330,272,186.333,57.104,13.338,36.035,36.615,41.202,4.587,295.7,544.2,290.3
2023-12-07T00:48:08,2420,42.8014,5.9826,4330,272,186.248,57.074,13.335,36.042,36.622,41.205,4.583,295.8,542.0,290.4
2023-12-07T00:51:08,2420,42.8014,5.9826,4330,272,186.166,57.054,13.338,36.045,36.625,41.208,4.583,295.7,544.2,290.3
2023-12-07T00:54:08,2420,42.8014,5.9826,4330,272,185.966,56.995,13.341,36.057,36.637,41.221,4.584,295.8,544.3,290.2
2023-12-07T00:57:08,2420,42.8014,5.9826,4330,272,186.141,57.034,13.329,36.051,36.631,41.219,4.588,295.8,544.3,290.6
2023-12-07T01:00:08,2420,42.8014,5.9826,4330,272,185.962,56.979,13.329,36.063,36.642,41.222,4.579,295.9,542.0,290.6
2023-12-07T01:03:08,2420,42.8014,5.9826,4330,272,186.162,57.042,13.330,36.050,36.630,41.211,4.581,295.8,544.3,290.6
2023-12-07T01:06:08,2420,42.8014,5.9826,4330,272,185.921,56.966,13.328,36.066,36.645,41.230,4.584,295.8,544.3,290.6
2023-12-07T01:09:08,2420,42.8014,5.9826,4330,272,186.140,57.041,13.335,36.049,36.629,41.203,4.574,295.9,542.0,290.4
2023-12-07T01:15:08,2420,42.8014,5.9826,4330,272,185.932,56.975,13.333,36.063,36.643,41.221,4.578,295.9,542.2,290.5
2023-12-07T01:18:08,2420,42.8014,5.9826,4330,272,186.181,57.044,13.327,36.049,36.629,41.214,4.585,295.8,544.3,290.7
2023-12-07T01:21:08,2420,42.8014,5.9826,4330,272,186.152,57.045,13.335,36.048,36.628,41.214,4.587,295.8,544.3,290.4
2023-12-07T01:24:08,2420,42.8014,5.9826,4330,272,186.034,56.999,13.328,36.059,36.639,41.224,4.585,295.8,544.3,290.6
2023-12-07T01:27:08,2420,42.8014,5.9826,4330,272,186.004,56.993,13.330,36.060,36.639,41.221,4.582,296.0,542.2,290.6
2023-12-07T01:30:08,2420,42.8014,5.9826,4330,272,185.999,56.992,13.330,36.060,36.640,41.225,4.585,295.7,544.2,290.6
2023-12-07T01:33:08,2420,42.8014,5.9826,4330,272,186.042,57.005,13.330,36.057,36.637,41.222,4.585,295.8,544.3,290.6
2023-12-07T01:36:08,2420,42.8014,5.9826,4330,272,185.962,56.978,13.328,36.063,36.643,41.219,4.575,295.9,542.2,290.6
2023-12-07T01:39:08,2420,42.8014,5.9826,4330,272,186.053,57.001,13.324,36.060,36.640,41.225,4.586,295.8,544.3,290.8
2023-12-07T01:42:08,2420,42.8014,5.9826,4330,272,186.010,56.983,13.321,36.064,36.644,41.229,4.585,295.9,544.4,290.9
2023-12-07T01:45:07,2420,42.8014,5.9826,4330,272,185.866,56.939,13.321,36.074,36.653,41.242,4.588,295.9,544.3,290.9
2023-12-07T01:48:08,2420,42.8014,5.9826,4330,272,186.126,57.021,13.322,36.056,36.636,41.214,4.578,295.9,542.3,290.8
2023-12-07T01:51:07,2420,42.8014,5.9826,4330,272,186.288,57.065,13.318,36.047,36.627,41.211,4.585,295.8,544.4,291.0
2023-12-07T01:54:07,2420,42.8014,5.9826,4330,272,186.158,57.026,13.318,36.055,36.635,41.223,4.588,295.8,544.4,291.0
2023-12-07T01:57:07,2420,42.8014,5.9826,4330,272,186.117,57.012,13.317,36.059,36.639,41.223,4.584,295.8,544.4,291.0
2023-12-07T02:00:08,2420,42.8014,5.9826,4330,272,186.450,57.118,13.321,36.035,36.615,41.197,4.582,295.9,542.3,290.9
2023-12-07T02:03:07,2420,42.8014,5.9826,4330,272,186.408,57.102,13.319,36.039,36.619,41.207,4.588,295.7,544.3,290.9
2023-12-07T02:06:07,2420,42.8014,5.9826,4330,272,186.206,57.042,13.320,36.051,36.631,41.217,4.586,295.7,544.4,290.9
2023-12-07T02:09:08,2420,42.8014,5.9826,4330,272,186.223,57.051,13.323,36.048,36.628,41.209,4.581,295.8,542.1,290.8
2023-12-07T02:12:08,2420,42.8014,5.9826,4330,272,186.356,57.092,13.323,36.040,36.620,41.203,4.582,295.8,542.5,290.8
2023-12-07T02:15:07,2420,42.8014,5.9826,4330,272,186.462,57.118,13.318,36.035,36.616,41.200,4.584,295.8,544.4,291.0
2023-12-07T02:18:07,2420,42.8014,5.9826,4330,272,186.372,57.092,13.319,36.042,36.622,41.206,4.585,295.8,544.4,290.9
2023-12-07T02:21:07,2420,42.8014,5.9826,4330,272,186.265,57.060,13.320,36.048,36.628,41.206,4.579,295.8,542.1,290.9
2023-12-07T02:24:08,2420,42.8014,5.9826,4330,272,186.385,57.097,13.320,36.040,36.620,41.203,4.583,295.8,542.5,290.9
2023-12-07T02:27:07,2420,42.8014,5.9826,4330,272,186.399,57.102,13.320,36.038,36.618,41.201,4.583,295.7,544.3,290.9
2023-12-07T02:30:07,2420,42.8014,5.9826,4330,272,186.504,57.144,13.328,36.028,36.608,41.186,4.578,295.8,542.2,290.6
2023-12-07T02:36:08,2420,42.8014,5.9826,4330,272,186.415,57.108,13.321,36.038,36.618,41.203,4.585,295.8,542.4,290.9
2023-12-07T02:39:07,2420,42.8014,5.9826,4330,272,186.168,57.030,13.319,36.055,36.634,41.220,4.586,295.7,544.4,290.9
2023-12-07T02:42:07,2420,42.8014,5.9826,4330,272,186.111,57.012,13.319,36.058,36.638,41.223,4.585,295.8,544.4,290.9
2023-12-07T02:48:08,2420,42.8014,5.9826,4330,272,186.517,57.141,13.323,36.030,36.610,41.191,4.581,295.8,542.4,290.8
2023-12-07T02:51:07,2420,42.8014,5.9826,4330,272,186.211,57.047,13.323,36.050,36.630,41.209,4.579,295.7,544.4,290.8
2023-12-07T02:54:07,2420,42.8014,5.9826,4330,272,186.339,57.089,13.325,36.041,36.621,41.200,4.579,295.8,542.2,290.7
2023-12-07T02:57:08,2420,42.8014,5.9826,4330,272,186.394,57.105,13.324,36.037,36.617,41.201,4.584,295.8,542.4,290.8
2023-12-07T03:00:07,2420,42.8014,5.9826,4330,272,186.252,57.056,13.320,36.049,36.629,41.210,4.581,295.8,544.4,290.9
2023-12-07T03:03:07,2420,42.8014,5.9826,4330,272,186.314,57.079,13.323,36.043,36.623,41.204,4.581,295.8,542.1,290.8
2023-12-07T03:06:08,2420,42.8014,5.9826,4330,272,186.415,57.110,13.322,36.036,36.616,41.200,4.583,295.9,542.5,290.8
2023-12-07T03:09:07,2420,42.8014,5.9826,4330,272,186.380,57.099,13.323,36.039,36.619,41.204,4.584,295.8,544.3,290.8
2023-12-07T03:12:07,2420,42.8014,5.9826,4330,272,186.141,57.026,13.323,36.055,36.635,41.216,4.581,295.8,542.3,290.8
2023-12-07T03:15:08,2420,42.8014,5.9826,4330,272,186.144,57.027,13.323,36.054,36.634,41.218,4.584,295.8,542.5,290.8
2023-12-07T03:18:07,2420,42.8014,5.9826,4330,272,186.254,57.056,13.319,36.049,36.629,41.212,4.583,295.7,544.3,290.9
2023-12-07T03:21:07,2420,42.8014,5.9826,4330,272,186.297,57.067,13.317,36.047,36.627,41.211,4.584,295.7,544.3,291.0
2023-12-07T03:24:07,2420,42.8014,5.9826,4330,272,186.311,57.073,13.319,36.045,36.625,41.201,4.575,295.8,542.2,290.9
2023-12-07T03:27:08,2420,42.8014,5.9826,4330,272,186.389,57.109,13.328,36.036,36.616,41.205,4.589,295.8,542.5,290.6
2023-12-07T03:30:07,2420,42.8014,5.9826,4330,272,186.311,57.080,13.325,36.042,36.622,41.208,4.586,295.7,544.3,290.8
2023-12-07T03:33:07,2420,42.8014,5.9826,4330,272,186.266,57.066,13.324,36.046,36.626,41.210,4.584,295.8,542.2,290.8
2023-12-07T03:36:07,2420,42.8014,5.9826,4330,272,186.389,57.099,13.320,36.040,36.620,41.204,4.584,295.8,542.4,290.9
2023-12-07T03:39:08,2420,42.8014,5.9826,4330,272,186.466,57.129,13.325,36.032,36.612,41.197,4.584,295.8,542.6,290.7
2023-12-07T03:42:07,2420,42.8014,5.9826,4330,272,186.210,57.049,13.324,36.049,36.629,41.215,4.586,295.7,544.4,290.8
2023-12-07T03:48:07,2420,42.8014,5.9826,4330,272,186.504,57.138,13.323,36.031,36.611,41.198,4.587,295.8,542.3,290.8
2023-12-07T03:51:08,2420,42.8014,5.9826,4330,272,186.394,57.103,13.322,36.038,36.618,41.200,4.582,295.7,542.6,290.8
2023-12-07T03:54:07,2420,42.8014,5.9826,4330,272,186.451,57.120,13.322,36.035,36.615,41.200,4.585,295.7,544.3,290.8
2023-12-07T03:57:07,2420,42.8014,5.9826,4330,272,186.355,57.094,13.325,36.039,36.619,41.201,4.581,295.7,542.4,290.7
2023-12-07T04:00:08,2420,42.8014,5.9826,4330,272,186.236,57.064,13.330,36.045,36.625,41.202,4.577,295.8,542.7,290.6
2023-12-07T04:03:07,2420,42.8014,5.9826,4330,272,186.535,57.147,13.323,36.029,36.609,41.189,4.579,295.8,542.1,290.8
2023-12-07T04:06:07,2420,42.8014,5.9826,4330,272,186.257,57.058,13.320,36.048,36.628,41.205,4.577,295.8,542.5,290.9
2023-12-07T04:09:08,2420,42.8014,5.9826,4330,272,186.176,57.038,13.323,36.052,36.632,41.216,4.584,295.7,542.6,290.8
2023-12-07T04:12:07,2420,42.8014,5.9826,4330,272,186.426,57.112,13.321,36.037,36.617,41.205,4.588,295.6,544.3,290.9
2023-12-07T04:15:08,2420,42.8014,5.9826,4330,272,186.261,57.061,13.322,36.047,36.627,41.210,4.583,295.8,542.5,290.8
2023-12-07T04:18:08,2420,42.8014,5.9826,4330,272,186.191,57.039,13.321,36.052,36.632,41.217,4.585,295.7,542.7,290.9
2023-12-07T04:24:07,2420,42.8014,5.9826,4330,272,186.290,57.073,13.324,36.044,36.624,41.204,4.580,295.8,542.3,290.8
2023-12-07T04:27:08,2420,42.8014,5.9826,4330,272,186.343,57.089,13.324,36.041,36.621,41.201,4.580,295.7,542.4,290.8
2023-12-07T04:30:08,2420,42.8014,5.9826,4330,272,186.418,57.110,13.322,36.037,36.617,41.198,4.580,295.8,542.7,290.8
2023-12-07T04:33:07,2420,42.8014,5.9826,4330,272,186.447,57.118,13.321,36.036,36.616,41.195,4.579,295.7,542.2,290.9
2023-12-07T04:36:07,2420,42.8014,5.9826,4330,272,186.280,57.066,13.320,36.046,36.626,41.210,4.583,295.8,542.5,290.9
2023-12-07T04:39:08,2420,42.8014,5.9826,4330,272,186.329,57.084,13.323,36.042,36.622,41.205,4.583,295.7,542.7,290.8
2023-12-07T04:42:07,2420,42.8014,5.9826,4330,272,186.366,57.095,13.323,36.039,36.620,41.206,4.587,295.7,544.3,290.8
2023-12-07T04:45:07,2420,42.8014,5.9826,4330,272,186.423,57.109,13.320,36.037,36.617,41.200,4.583,295.8,542.2,290.9
2023-12-07T04:48:07,2420,42.8014,5.9826,4330,272,186.328,57.083,13.323,36.042,36.622,41.206,4.584,295.8,542.4,290.8
2023-12-07T04:51:08,2420,42.8014,5.9826,4330,272,186.497,57.134,13.322,36.032,36.612,41.192,4.580,295.8,542.7,290.8
2023-12-07T04:54:07,2420,42.8014,5.9826,4330,272,186.136,57.024,13.323,36.055,36.635,41.219,4.584,295.7,544.3,290.8
2023-12-07T04:57:07,2420,42.8014,5.9826,4330,272,186.366,57.092,13.321,36.041,36.621,41.204,4.583,295.7,542.5,290.9
2023-12-07T05:00:08,2420,42.8014,5.9826,4330,272,186.245,57.056,13.322,36.048,36.628,41.213,4.585,295.7,542.8,290.8
2023-12-07T05:03:07,2420,42.8014,5.9826,4330,272,186.424,57.117,13.326,36.034,36.614,41.195,4.581,295.7,542.2,290.7
2023-12-07T05:06:07,2420,42.8014,5.9826,4330,272,186.216,57.050,13.324,36.049,36.629,41.214,4.585,295.8,542.5,290.8
2023-12-07T05:09:08,2420,42.8014,5.9826,4330,272,186.267,57.063,13.322,36.047,36.627,41.210,4.583,295.7,542.7,290.8
2023-12-07T05:12:07,2420,42.8014,5.9826,4330,272,186.477,57.127,13.321,36.033,36.613,41.195,4.582,295.7,544.3,290.9
2023-12-07T05:15:07,2420,42.8014,5.9826,4330,272,186.532,57.138,13.317,36.032,36.612,41.198,4.586,295.8,542.6,291.0
2023-12-07T05:18:08,2420,42.8014,5.9826,4330,272,186.355,57.092,13.323,36.040,36.620,41.205,4.585,295.7,542.9,290.8
2023-12-07T05:21:07,2420,42.8014,5.9826,4330,272,186.463,57.120,13.319,36.035,36.615,41.193,4.577,295.8,542.1,290.9
2023-12-07T05:24:07,2420,42.8014,5.9826,4330,272,186.194,57.038,13.320,36.053,36.633,41.213,4.580,295.8,542.5,290.9
2023-12-07T05:27:07,2420,42.8014,5.9826,4330,272,186.383,57.095,13.319,36.040,36.620,41.205,4.585,295.7,542.7,290.9
2023-12-07T05:30:08,2420,42.8014,5.9826,4330,272,186.248,57.058,13.322,36.048,36.628,41.209,4.582,295.7,542.9,290.8
2023-12-07T05:33:07,2420,42.8014,5.9826,4330,272,186.296,57.069,13.319,36.046,36.626,41.208,4.582,295.7,542.5,290.9
2023-12-07T05:36:07,2420,42.8014,5.9826,4330,272,186.334,57.081,13.319,36.043,36.623,41.207,4.584,295.8,542.7,290.9
2023-12-07T05:39:08,2420,42.8014,5.9826,4330,272,186.179,57.038,13.323,36.052,36.631,41.215,4.584,295.7,542.9,290.8
2023-12-07T05:42:07,2420,42.8014,5.9826,4330,272,186.251,57.057,13.321,36.048,36.628,41.205,4.577,295.7,542.1,290.9
2023-12-07T05:45:07,2420,42.8014,5.9826,4330,272,186.411,57.104,13.319,36.039,36.619,41.201,4.582,295.7,542.4,290.9
2023-12-07T05:48:07,2420,42.8014,5.9826,4330,272,186.486,57.126,13.318,36.034,36.614,41.197,4.583,295.7,542.7,291.0
2023-12-07T05:51:08,2420,42.8014,5.9826,4330,272,186.464,57.124,13.322,36.033,36.613,41.193,4.579,295.8,542.8,290.8
2023-12-07T05:54:07,2420,42.8014,5.9826,4330,272,186.492,57.130,13.320,36.033,36.613,41.195,4.583,295.8,542.1,290.9
2023-12-07T05:57:07,2420,42.8014,5.9826,4330,272,186.486,57.127,13.319,36.034,36.614,41.191,4.577,295.7,542.5,290.9
2023-12-07T06:00:07,2420,42.8014,5.9826,4330,272,186.440,57.112,13.318,36.038,36.618,41.201,4.583,295.8,542.8,291.0
2023-12-07T06:03:07,2420,42.8014,5.9826,4330,272,186.614,57.165,13.318,36.026,36.606,41.189,4.583,295.8,542.4,291.0
2023-12-07T06:06:07,2420,42.8014,5.9826,4330,272,186.297,57.068,13.318,36.047,36.627,41.206,4.580,295.7,542.7,291.0
2023-12-07T06:09:08,2420,42.8014,5.9826,4330,272,186.461,57.119,13.319,36.035,36.615,41.197,4.582,295.7,543.1,290.9
2023-12-07T06:12:07,2420,42.8014,5.9826,4330,272,186.373,57.094,13.320,36.040,36.620,41.205,4.584,295.8,542.4,290.9
2023-12-07T06:15:07,2420,42.8014,5.9826,4330,272,186.160,57.024,13.316,36.056,36.636,41.221,4.585,295.7,542.7,291.0
2023-12-07T06:18:08,2420,42.8014,5.9826,4330,272,186.485,57.120,13.314,36.037,36.617,41.200,4.584,295.8,542.9,291.1
2023-12-07T06:21:08,2420,42.8014,5.9826,4330,272,186.339,57.081,13.319,36.044,36.624,41.210,4.586,295.7,543.0,290.9
2023-12-07T06:24:07,2420,42.8014,5.9826,4330,272,186.428,57.106,13.317,36.038,36.618,41.199,4.581,295.7,542.3,291.0
2023-12-07T06:27:07,2420,42.8014,5.9826,4330,272,186.586,57.153,13.315,36.029,36.609,41.192,4.583,295.7,542.7,291.0
2023-12-07T06:30:07,2420,42.8014,5.9826,4330,272,186.379,57.089,13.315,36.043,36.623,41.209,4.586,295.7,542.8,291.1
2023-12-07T06:33:07,2420,42.8014,5.9826,4330,272,186.336,57.076,13.315,36.046,36.626,41.204,4.578,295.7,542.2,291.1
2023-12-07T06:36:07,2420,42.8014,5.9826,4330,272,186.321,57.071,13.314,36.047,36.627,41.208,4.581,295.7,542.6,291.1
2023-12-07T06:39:07,2420,42.8014,5.9826,4330,272,186.309,57.067,13.315,36.047,36.627,41.209,4.582,295.7,542.8,291.1
2023-12-07T06:42:08,2420,42.8014,5.9826,4330,272,186.429,57.104,13.315,36.040,36.620,41.200,4.580,295.8,543.0,291.1
2023-12-07T06:45:07,2420,42.8014,5.9826,4330,272,186.668,57.181,13.318,36.022,36.603,41.190,4.587,295.8,542.3,291.0
2023-12-07T06:48:07,2420,42.8014,5.9826,4330,272,186.339,57.078,13.316,36.045,36.625,41.206,4.581,295.7,542.9,291.0
2023-12-07T06:51:08,2420,42.8014,5.9826,4330,272,186.382,57.085,13.311,36.044,36.624,41.204,4.580,295.7,543.0,291.2
2023-12-07T06:54:07,2420,42.8014,5.9826,4330,272,186.356,57.082,13.315,36.044,36.624,41.203,4.579,295.7,542.3,291.1
2023-12-07T06:57:07,2420,42.8014,5.9826,4330,272,186.309,57.073,13.320,36.045,36.625,41.203,4.578,295.7,542.7,290.9
2023-12-07T07:00:07,2420,42.8014,5.9826,4330,272,186.559,57.142,13.314,36.031,36.611,41.196,4.584,295.7,543.0,291.1
2023-12-07T07:03:07,2420,42.8014,5.9826,4330,272,186.414,57.102,13.317,36.040,36.620,41.199,4.579,295.7,542.4,291.0
2023-12-07T07:06:07,2420,42.8014,5.9826,4330,272,186.416,57.099,13.314,36.041,36.621,41.202,4.582,295.7,542.6,291.1
2023-12-07T07:09:07,2420,42.8014,5.9826,4330,272,186.418,57.096,13.311,36.042,36.622,41.203,4.581,295.8,542.9,291.2
2023-12-07T07:12:07,2420,42.8014,5.9826,4330,272,186.415,57.105,13.319,36.039,36.619,41.200,4.582,295.7,542.5,290.9
2023-12-07T07:15:07,2420,42.8014,5.9826,4330,272,186.469,57.115,13.314,36.037,36.617,41.198,4.581,295.7,542.7,291.1
2023-12-07T07:18:07,2420,42.8014,5.9826,4330,272,186.423,57.101,13.314,36.040,36.620,41.206,4.586,295.7,543.0,291.1
2023-12-07T07:21:08,2420,42.8014,5.9826,4330,272,186.582,57.147,13.312,36.031,36.611,41.196,4.585,295.7,543.1,291.2
2023-12-07T07:24:07,2420,42.8014,5.9826,4330,272,186.577,57.144,13.311,36.032,36.612,41.193,4.581,295.7,542.6,291.2
2023-12-07T07:27:07,2420,42.8014,5.9826,4330,272,186.610,57.157,13.313,36.029,36.609,41.191,4.583,295.8,542.8,291.1
2023-12-07T07:30:07,2420,42.8014,5.9826,4330,272,186.480,57.117,13.313,36.037,36.617,41.202,4.585,295.8,543.1,291.1
2023-12-07T07:33:07,2420,42.8014,5.9826,4330,272,186.656,57.173,13.314,36.025,36.605,41.190,4.584,295.7,542.6,291.1
2023-12-07T07:36:07,2420,42.8014,5.9826,4330,272,186.523,57.135,13.316,36.032,36.613,41.195,4.582,295.8,542.7,291.0
2023-12-07T07:39:07,2420,42.8014,5.9826,4330,272,186.442,57.107,13.314,36.040,36.620,41.204,4.584,295.7,543.0,291.1
2023-12-07T07:42:08,2420,42.8014,5.9826,4330,272,186.599,57.157,13.315,36.028,36.608,41.190,4.582,295.6,543.0,291.1
2023-12-07T07:45:07,2420,42.8014,5.9826,4330,272,186.479,57.114,13.311,36.038,36.618,41.203,4.585,295.8,542.5,291.2
2023-12-07T07:48:08,2420,42.8014,5.9826,4330,272,186.252,57.049,13.314,36.051,36.631,41.214,4.583,295.7,543.1,291.1
2023-12-07T07:51:08,2420,42.8014,5.9826,4330,272,186.480,57.121,13.316,36.036,36.616,41.200,4.585,295.7,543.2,291.0
2023-12-07T07:54:07,2420,42.8014,5.9826,4330,272,186.240,57.044,13.313,36.053,36.633,41.212,4.580,295.8,542.6,291.1
2023-12-07T07:57:07,2420,42.8014,5.9826,4330,272,186.225,57.040,13.313,36.053,36.633,41.210,4.577,295.7,542.9,291.1
2023-12-07T08:00:07,2420,42.8014,5.9826,4330,272,186.492,57.118,13.311,36.037,36.618,41.201,4.583,295.8,543.1,291.2
2023-12-07T08:03:07,2420,42.8014,5.9826,4330,272,186.524,57.130,13.313,36.034,36.614,41.199,4.585,295.8,542.7,291.1
2023-12-07T08:06:07,2420,42.8014,5.9826,4330,272,186.457,57.110,13.312,36.039,36.619,41.199,4.580,295.8,542.9,291.1
2023-12-07T08:09:07,2420,42.8014,5.9826,4330,272,186.177,57.024,13.313,36.057,36.637,41.218,4.581,295.8,543.1,291.1
2023-12-07T08:12:07,2420,42.8014,5.9826,4330,272,186.400,57.088,13.309,36.045,36.625,41.205,4.580,295.7,543.1,291.3
2023-12-07T08:15:08,2420,42.8014,5.9826,4330,272,186.580,57.146,13.312,36.032,36.612,41.198,4.587,295.7,543.1,291.2
2023-12-07T08:18:08,2420,42.8014,5.9826,4330,272,186.430,57.105,13.315,36.039,36.619,41.206,4.587,295.7,543.2,291.1
2023-12-07T08:21:07,2420,42.8014,5.9826,4330,272,186.512,57.122,13.309,36.037,36.617,41.200,4.583,295.7,542.8,291.3
2023-12-07T08:24:07,2420,42.8014,5.9826,4330,272,186.558,57.135,13.308,36.034,36.614,41.196,4.582,295.8,543.0,291.3
2023-12-07T08:27:07,2420,42.8014,5.9826,4330,272,186.538,57.129,13.309,36.036,36.616,41.202,4.586,295.7,543.2,291.3
2023-12-07T08:30:08,2420,42.8014,5.9826,4330,272,186.442,57.100,13.308,36.042,36.622,41.205,4.583,295.7,543.3,291.3
2023-12-07T08:33:07,2420,42.8014,5.9826,4330,272,186.498,57.118,13.309,36.037,36.617,41.201,4.584,295.7,543.0,291.2
2023-12-07T08:36:07,2420,42.8014,5.9826,4330,272,186.469,57.108,13.308,36.040,36.620,41.200,4.580,295.6,543.1,291.3
2023-12-07T08:39:08,2420,42.8014,5.9826,4330,272,186.430,57.104,13.314,36.040,36.620,41.207,4.587,295.7,543.2,291.1
2023-12-07T08:42:07,2420,42.8014,5.9826,4330,272,186.563,57.141,13.312,36.033,36.613,41.197,4.584,295.8,542.7,291.2
2023-12-07T08:45:07,2420,42.8014,5.9826,4330,272,186.438,57.105,13.313,36.040,36.620,41.201,4.581,295.7,543.0,291.1
2023-12-07T08:48:07,2420,42.8014,5.9826,4330,272,186.527,57.131,13.312,36.034,36.614,41.196,4.581,295.7,543.2,291.2
2023-12-07T08:51:08,2420,42.8014,5.9826,4330,272,186.602,57.155,13.313,36.029,36.610,41.194,4.585,295.6,543.2,291.1
2023-12-07T08:54:07,2420,42.8014,5.9826,4330,272,186.529,57.127,13.308,36.036,36.616,41.198,4.582,295.7,542.7,291.3
2023-12-07T08:57:08,2420,42.8014,5.9826,4330,272,186.509,57.124,13.311,36.036,36.616,41.199,4.582,295.7,543.2,291.2
2023-12-07T09:00:07,2420,42.8014,5.9826,4330,272,186.930,57.252,13.310,36.009,36.589,41.175,4.586,295.7,542.8,291.2
2023-12-07T09:03:07,2420,42.8014,5.9826,4330,272,186.572,57.146,13.313,36.031,36.611,41.191,4.580,295.7,543.2,291.1
2023-12-07T09:06:08,2420,42.8014,5.9826,4330,272,186.597,57.151,13.311,36.030,36.610,41.196,4.585,295.6,543.3,291.2
2023-12-07T09:09:07,2420,42.8014,5.9826,4330,272,186.515,57.123,13.309,36.037,36.617,41.197,4.580,295.6,542.8,291.3
2023-12-07T09:12:07,2420,42.8014,5.9826,4330,272,186.628,57.159,13.310,36.029,36.609,41.191,4.582,295.7,543.0,291.2
2023-12-07T09:15:07,2420,42.8014,5.9826,4330,272,186.608,57.152,13.309,36.030,36.610,41.193,4.583,295.7,543.1,291.3
2023-12-07T09:18:08,2420,42.8014,5.9826,4330,272,186.544,57.134,13.311,36.034,36.614,41.197,4.583,295.7,543.3,291.2
2023-12-07T09:21:07,2420,42.8014,5.9826,4330,272,186.591,57.150,13.311,36.031,36.611,41.190,4.579,295.7,542.9,291.2
2023-12-07T09:24:07,2420,42.8014,5.9826,4330,272,186.511,57.132,13.317,36.034,36.614,41.203,4.589,295.5,543.2,291.0
2023-12-07T09:27:08,2420,42.8014,5.9826,4330,272,186.786,57.208,13.311,36.019,36.599,41.186,4.587,295.6,543.3,291.2
2023-12-07T09:30:07,2420,42.8014,5.9826,4330,272,186.520,57.133,13.316,36.033,36.614,41.198,4.585,295.7,542.9,291.0
2023-12-07T09:33:07,2420,42.8014,5.9826,4330,272,186.659,57.170,13.311,36.026,36.606,41.194,4.587,295.6,543.3,291.2
2023-12-07T09:36:08,2420,42.8014,5.9826,4330,272,186.585,57.146,13.310,36.032,36.612,41.195,4.584,295.7,543.3,291.2
2023-12-07T09:39:07,2420,42.8014,5.9826,4330,272,186.472,57.113,13.312,36.039,36.619,41.195,4.577,295.7,542.9,291.2
2023-12-07T09:42:07,2420,42.8014,5.9826,4330,272,186.637,57.163,13.311,36.028,36.608,41.192,4.584,295.6,543.1,291.2
2023-12-07T09:45:07,2420,42.8014,5.9826,4330,272,186.533,57.134,13.313,36.033,36.614,41.197,4.583,295.7,543.2,291.1
2023-12-07T09:48:08,2420,42.8014,5.9826,4330,272,186.635,57.167,13.314,36.026,36.606,41.193,4.586,295.7,543.3,291.1
2023-12-07T09:51:07,2420,42.8014,5.9826,4330,272,186.553,57.141,13.314,36.032,36.612,41.198,4.586,295.7,542.9,291.1
2023-12-07T09:54:07,2420,42.8014,5.9826,4330,272,186.454,57.107,13.311,36.040,36.620,41.204,4.584,295.7,543.0,291.2
2023-12-07T09:57:07,2420,42.8014,5.9826,4330,272,186.317,57.065,13.311,36.049,36.629,41.212,4.583,295.7,543.2,291.2
2023-12-07T10:00:08,2420,42.8014,5.9826,4330,272,186.599,57.150,13.310,36.031,36.611,41.196,4.586,295.7,543.4,291.2
2023-12-07T10:03:07,2420,42.8014,5.9826,4330,272,186.613,57.158,13.313,36.028,36.608,41.196,4.588,295.7,543.0,291.1
2023-12-07T10:06:07,2420,42.8014,5.9826,4330,272,186.495,57.123,13.314,36.036,36.616,41.198,4.582,295.7,543.2,291.1
2023-12-07T10:09:07,2420,42.8014,5.9826,4330,272,186.449,57.112,13.316,36.037,36.617,41.198,4.581,295.7,543.3,291.0
2023-12-07T10:12:08,2420,42.8014,5.9826,4330,272,186.558,57.143,13.314,36.031,36.612,41.194,4.583,295.8,543.4,291.1
2023-12-07T10:15:07,2420,42.8014,5.9826,4330,272,186.559,57.143,13.314,36.031,36.611,41.194,4.583,295.7,543.0,291.1
2023-12-07T10:18:07,2420,42.8014,5.9826,4330,272,186.527,57.137,13.317,36.032,36.612,41.195,4.583,295.7,543.1,291.0
2023-12-07T10:21:07,2420,42.8014,5.9826,4330,272,186.678,57.182,13.316,36.023,36.603,41.190,4.587,295.7,543.3,291.0